Preview of NWS' New Version of Forecast
This preview is not operational and should not be used for support decisions.

Regional Weather Roundup (RWR)

Issued by National Weather Service (NWS)

                            
000
ASUS46 KSEW 192310
RWRWA 

WASHINGTON REGIONAL WEATHER ROUNDUP
NATIONAL WEATHER SERVICE SEATTLE WA
400 PM PDT FRI APR 19 2019

NOTE:"FAIR" INDICATES FEW OR NO CLOUDS BELOW 12,000 FEET WITH NO 
SIGNIFICANT WEATHER AND/OR OBSTRUCTIONS TO VISIBILITY.

WAZ507-509-555>559-200000-
SEATTLE, TACOMA, EVERETT, AND VICINITY
  
CITY           SKY/WX    TMP DP  RH WIND       PRES   REMARKS
EVERETT        LGT RAIN  51  48  89 VRB5      30.00S                  
BOEING FIELD   LGT RAIN  54  50  86 CALM      29.99S                  
RENTON         LGT RAIN  54  50  86 NW7       29.98F FOG              
SEATAC AIRPORT LGT RAIN  54  49  83 NE13      29.98F                  
JBLM-MCCHORD   DRIZZLE   55  55 100 W8        29.98F                  
PUYALLUP       CLOUDY    55  54  94 CALM      29.98F                  
BREMERTON      LGT RAIN  52  51  97 NE10      29.98F                  
JBLM-FT LEWIS  LGT RAIN  55  55 100 SW3       29.97F                  
TACOMA NARROWS LGT RAIN  54  51  90 VRB3      29.98F FOG              
$$
 
WAZ001-503-506-510-514-515-200000-
NORTH INTERIOR
  
CITY           SKY/WX    TMP DP  RH WIND       PRES   REMARKS
BELLINGHAM     CLOUDY    58  49  72 VRB6      29.97S                  
FRIDAY HARBOR  CLOUDY    56  48  74 NW8       29.98S                  
EASTSOUND      LGT RAIN  52  50  93 NW5       29.98S                  
PORT ANGELES   MOSUNNY   57  47  69 W9        29.99S                  
EDIZ HOOK      FAIR      54  48  80 W18       29.99S                  
PORT TOWNSEND  CLOUDY    55  46  71 W9        29.98S                  
NAS WHIDBEY    CLOUDY    58  46  64 SW8       30.02S                  
ARLINGTON      CLOUDY    54  51  90 S6        29.99F                  
BURLINGTON     CLOUDY    59  50  72 SE5       29.98S                  
$$
 
WAZ020-022-039-040-504-511-512-200000-
SOUTHWEST INTERIOR
  
CITY           SKY/WX    TMP DP  RH WIND       PRES   REMARKS
SHELTON        CLOUDY    58  52  80 SW8       29.95F                  
OLYMPIA        LGT RAIN  57  48  72 SW3       29.98F                  
CHEHALIS       DRIZZLE   55  54  94 CALM      29.98F                  
KELSO          LGT RAIN  56  54  93 NW5       29.98F                  
VANCOUVER      LGT RAIN  56  53  90 NW8       29.95F                  
SCAPPOOSE, OR  LGT RAIN  59  54  83 N3        29.96S                  
PORTLAND, OR   LGT RAIN  57  53  86 NW10      29.96F                  
$$
 
WAZ021-516-517-200000-
WASHINGTON COAST
  
CITY           SKY/WX    TMP DP  RH WIND       PRES   REMARKS
FORKS          MOSUNNY   57  49  74 W7        30.00S                  
HOQUIAM        CLOUDY    53  53 100 W10       30.00S                  
ASTORIA, OR    LGT RAIN  55  49  80 NW6       29.99F                  
$$
 
WAZ019-023-024-040-567>569-200000-
CASCADE MOUNTAINS AND COLUMBIA GORGE
  
CITY           SKY/WX    TMP DP  RH WIND       PRES   REMARKS
STAMPEDE PASS  LGT RAIN  44  42  93 NW5       29.93F VSB 1/2          
TROUTDALE, OR  LGT RAIN  58  52  80 W8        29.94F                  
HOOD RIVER, OR CLOUDY    64  48  55 MISG      29.88F                  
THE DALLES, OR CLOUDY    69  50  50 W21       29.82F                  
$$

WAZ026-027-041>044-520-521-200000-
EAST SLOPES
  
CITY           SKY/WX    TMP DP  RH WIND       PRES   REMARKS
OMAK           CLOUDY    67  45  45 SE14      29.78F                  
WENATCHEE      CLOUDY    65  39  38 W13G23    29.82F                  
ELLENSBURG     CLOUDY    60  43  53 NW22      29.86F                  
YAKIMA         CLOUDY    66  39  37 NW16G24   29.85F                  
SUNNYSIDE ARPT CLOUDY    72  48  43 W13G23    29.80S                  
YAKIMA TC      MOCLDY    64  40  42 NW8       29.84F                  
$$

WAZ028-034-035-200000-
COLUMBIA BASIN
  
CITY           SKY/WX    TMP DP  RH WIND       PRES   REMARKS
EPHRATA        CLOUDY    68  40  35 W9        29.81F                  
MOSES LAKE     CLOUDY    71  43  36 W8        29.82F                  
PASCO          PTSUNNY   79  45  29 N17       29.78F                  
RICHLAND ARPT  MOCLDY    76  46  34 NW13      29.78F                  
HERMISTON, OR  MOSUNNY   80  46  30 N9        29.75F                  
$$

WAZ036>038-200000-
NORTHEAST WASHINGTON
  
CITY           SKY/WX    TMP DP  RH WIND       PRES   REMARKS
SPOKANE GEIGER LGT RAIN  61  46  57 NW12      29.85F                  
SPOKANE FELTS  CLOUDY    64  44  48 W9G17     29.84F                  
FAIRCHILD AFB  LGT RAIN  60  45  57 W8        29.84F                  
COEURDALENE,ID CLOUDY    63  48  58 W12       29.85F                  
DEER PARK      CLOUDY    62  45  53 S12       29.83F                  
$$

WAZ029>033-200000-
SOUTHEAST WASHINGTON
  
CITY           SKY/WX    TMP DP  RH WIND       PRES   REMARKS
PULLMAN        PTSUNNY   69  50  50 NW15G21   29.84F                  
LEWISTON, ID   LGT RAIN  70  51  51 NW8G18    29.78F                  
WALLA WALLA    PTSUNNY   74  50  42 NW7       29.79F                  
PENDLETON, OR  CLOUDY    73  50  44 NW9       29.79F                  
$$